sat.trackr.live / text

‹ back to catalog

STARLINK-34152

NORAD 64000 · 2025-101G

PAYLOAD ACTIVE UNKNOWN

§ Identity

Operator
Country
US
Launch date
2025-05-14
Launch site
AFETR
Launch vehicle
Mass (kg)
RCS (m²)

Purposes: comms

External: N2YO · Heavens-Above · Gunter

§ Orbital elements

Epoch: 2026-05-25T02:37:32.007936Z

Period
94.27 min
Inclination
42.9981°
Eccentricity
0.0000295
Mean motion
15.27587815 rev/d
Perigee alt
482.8 km
Apogee alt
483.2 km
Semi-major
6,861.2 km
B*
3.0615e-4
RAAN
286.3009°
Arg perigee
352.4983°
Mean anomaly
7.5864°
Rev number
5,874

§ Raw data

STARLINK-341521 64000U 25101G   26145.10939824  .00008174  00000+0  30615-3 0  99902 64000  42.9981 286.3009 0000295 352.4983   7.5864 15.27587815 58746

JSON: /api/v1/satellites/64000 · /tle

For live sub-satellite position, see the globe view (requires WebGL).

§ Visibility from observer

Set your observer location to see the next 7 days of passes ≥ 10°. The values pass through the URL so the page stays shareable.

No JS? Fill the form by hand. The geolocation button needs JavaScript.